Вернуться в каталог

STARLINK-38082

АктивенСвязьSSO
NORAD 69993·PAYLOAD·🇺🇸 United States

Запущен Jul 11, 2026 с Vandenberg Space Force Base

Loading…

Ближайшие Пролёты (ближайшие 24 часа)

TLE

СвежийSource: CelesTrak SupGP

Эпоха: Sep 15, 2026, 03:34 UTC

1 69993C 26159U   26258.14909722 -.02677200  00000+0 -46430-1 0  2587
2 69993  97.2850  99.9198 0002203  87.9250 104.1044 15.52275702    13

Отслеживайте STARLINK-38082 в реальном времени с AllMySat

Download on the App Store